www.pogodaiklimat.ru

Погода и климат >> Архив погоды >> Россия >> Московская область >> Черусти


ПОГОДА в Черустях

  • Прогноз погоды в Черустях
  • Монитор погоды в Черустях

АРХИВ ПОГОДЫ в Черустях

Время (UTC), дата Ветер
(напр.,м/с)
 
Видим.   Явления Облачность Т
(С)
Тd
(С)
f
(%)
Тe
(С)
Тes
(С)
Комфортность P
(гПа)
Po
(гПа)
Тmin
(С)
Tmax
(С)
R
(мм)
R24
(мм)
S
(см)
03 13.07 СВ 1 500 м ливневой дождь 10/10 600 м
[Cb cap]
+10.5 +9.3 92 +10 +10 1007.7 992.5 +10.4 6
06 13.07 С 2 10 км в посл. час ливневой дождь 10/10 600 м
[Cb cap]
+12.3 +9.9 85 +11 +11 1008.0 992.9 +10.4 6
09 13.07 В 2 10 км 8/8 600 м
[Cu Sc]
+15.7 +8.2 61 +16 +19 1008.6 993.6
12 13.07 СЗ 2 10 км 9/8 600 м
[Sc diur, vesp Ci]
+17.7 +8.0 53 +18 +20 1008.7 993.8
15 13.07 СЗ 1 10 км 8/0
[Ac lent Ci fib]
+17.4 +8.9 57 +18 +20 1009.2 994.3 1
18 13.07 штиль 0 10 км 4/0
[Ac lent]
+10.7 +8.9 89 +10 +10 1010.3 995.0 +18.8
21 13.07 штиль 0 н/о 8/0
[Ac lent]
+7.7 +6.4 91 +7 +7 1010.8 995.4
00 14.07 З 1 н/о 9/0
[Ac lent]
+5.6 +4.4 92 +4 +4 1011.2 995.7
03 14.07 штиль 0 10 км 9/0
[Ac lent]
+10.6 +9.5 93 +10 +10 1011.3 996.0 +5.2
06 14.07 С 1 10 км 9/0
[Ac lent]
+18.2 +9.6 57 +20 +23 1010.8 995.9 +5.2
09 14.07 штиль 0 10 км 8/5 600 м
[Cu med, cong Ac lent]
+19.1 +6.7 44 +20 +25 1010.8 996.0
12 14.07 штиль 0 10 км 8/6 600 м
[Cu med, cong Ac lent]
+20.0 +7.6 45 +21 +24 комфорт 1010.3 995.5
15 14.07 СЗ 1 10 км 4/0
[Ac lent]
+20.4 +6.7 41 +22 +25 комфорт 1010.5 995.7
18 14.07 штиль 0 10 км 6/0
[Ac lent]
+13.9 +11.2 84 +14 +14 1011.2 996.1 +21.6
21 14.07 штиль 0 н/о 3/0
[Ac lent]
+9.7 +8.3 91 +9 +9 1011.5 996.2
00 15.07 штиль 0 н/о ясно +6.6 +5.3 91 +6 +6 1011.6 996.1
03 15.07 штиль 0 10 км 8/0
[Ac trans]
+9.4 +8.2 92 +9 +10 1011.8 996.4 +5.7
06 15.07 В 1 10 км 4/3 600 м
[Cu med, cong Ci fib]
+19.2 +8.6 50 +21 +28 комфорт 1011.0 996.2 +5.7
09 15.07 З 1 10 км 8/6 600 м
[Cu med, cong Ci fib]
+22.4 +8.8 42 +24 +30 комфорт 1010.3 995.6
12 15.07 С 1 10 км 9/9 600 м
[Sc diur, vesp]
+22.3 +10.0 46 +24 +25 комфорт 1010.2 995.6
15 15.07 СЗ 1 10 км 8/4 600 м
[Cu med, cong Ac lent Ci fib]
+19.7 +11.8 60 +22 +23 комфорт 1010.5 995.7
18 15.07 З 1 10 км 10/10 600 м
[Sc diur, vesp]
+16.1 +11.6 75 +17 +17 1011.1 996.1 +22.6
21 15.07 штиль 0 н/о 6/3 600 м
[Sc diur, vesp Ac lent]
+11.5 +10.0 90 +11 +11 1011.3 996.1
00 16.07 штиль 0 н/о 10/10 600 м
[Cu med, cong]
+10.6 +9.4 92 +10 +10 1011.7 996.4
03 16.07 штиль 0 10 км 10/10 600 м
[Sc diur, vesp]
+12.6 +11.4 92 +12 +12 1012.1 996.9 +10.1
06 16.07 В 1 10 км 10/10 600 м
[Sc]
+16.3 +11.8 75 +17 +17 1011.9 996.9 +10.1
09 16.07 Ю 1 10 км 9/4 600 м
[Sc Ac trans]
+21.4 +11.9 55 +24 +29 комфорт 1011.3 996.6
12 16.07 ЮВ 2 10 км 8/0
[Ac trans Ci fib]
+23.9 +11.5 46 +25 +33 комфорт 1010.1 995.6
15 16.07 штиль 0 10 км гроза без осадков {ливн. осадки} 10/8 600 м
[Cb cap Ci fib]
+19.4 +13.5 69 +21 +21 комфорт 1009.4 994.6 0.4
18 16.07 В 2 10 км {гроза, ливн. осадки} 8/8 600 м
[Cb cap]
+18.7 +13.7 73 +20 +20 1009.1 994.3 +25.0 0.4
21 16.07 ЮВ 1 н/о 8/8 600 м
[Sc diur, vesp]
+15.0 +12.9 87 +15 +15 1009.8 994.8
00 17.07 штиль 0 н/о 8/8 600 м
[Sc diur, vesp]
+13.4 +12.0 91 +13 +13 1009.2 994.1
03 17.07 С 1 10 км 10/3 600 м
[Sc Ac trans Ci fib]
+14.9 +13.4 91 +15 +16 1008.7 993.7 +13.3
06 17.07 ЮВ 2 10 км 10/10 600 м
[Sc diur, vesp]
+19.5 +13.2 67 +22 +22 комфорт 1008.0 993.2 +13.3
09 17.07 В 3 10 км 8/4 600 м
[Sc Ac trans Ci fib]
+21.8 +11.6 52 +24 +29 комфорт 1007.5 992.8
12 17.07 В 3 10 км 10/10 600 м
[Sc]
+17.7 +12.2 70 +18 +18 1007.5 992.7
15 17.07 СВ 2 10 км 10/10 600 м
[Sc]
+16.6 +13.9 84 +17 +17 1006.1 991.3
18 17.07 штиль 0 10 км в посл. час ливневой дождь 10/10 600 м
[Cb cap]
+16.2 +14.6 90 +16 +16 1005.7 990.8 +22.6 0.3
21 17.07 СВ 1 н/о 10/10 600 м
[Sc]
+16.1 +14.7 91 +17 +17 1004.4 989.5
00 18.07 штиль 0 н/о 10/10 600 м
[Sc]
+16.0 +14.7 92 +16 +16 1003.5 988.6
03 18.07 ЮЗ 1 10 км 10/10 600 м
[Sc]
+16.1 +14.8 92 +17 +17 1004.0 989.2 +15.8 0.3
06 18.07 ЮЗ 1 10 км 10/10 600 м
[Sc]
+17.1 +14.2 83 +18 +18 1004.8 990.0 +15.8
09 18.07 ЮЗ 1 10 км 8/8 600 м
[Cu med, cong]
+20.8 +13.8 64 +25 +28 комфорт 1005.1 990.5
12 18.07 Ю 2 10 км 6/6 600 м
[Cu med, cong]
+24.4 +10.1 40 +25 +30 комфорт 1004.8 990.3
15 18.07 ЮВ 1 10 км 4/3 600 м
[Cu hum Ci fib]
+19.5 +12.9 66 +22 +24 комфорт 1005.8 991.1
18 18.07 ЮВ 1 10 км 10/10 600 м
[Sc]
+16.5 +13.7 84 +17 +17 1005.9 991.1 +24.4
21 18.07 Ю 1 н/о ясно +13.5 +10.9 84 +14 +14 1007.0 992.0
00 19.07 ЮВ 1 н/о ясно +9.3 +8.0 92 +9 +9 1007.2 991.9
03 19.07 ЮВ 1 10 км 6/0
[Ci]
+12.3 +10.9 91 +12 +14 1006.8 991.7 +8.1
06 19.07 ЮВ 2 10 км 10/10 600 м
[Sc]
+15.4 +11.4 77 +15 +15 1006.1 991.2 +8.1
09 19.07 Ю 3 10 км 10/10 600 м
[Sc]
+15.7 +13.3 86 +15 +15 1006.4 991.5
12 19.07 Ю 4 10 км {ливн. осадки} 8/8 600 м
[Cb cap]
+20.4 +12.3 60 +23 +24 комфорт 1006.1 991.4
15 19.07 ЮЗ 1 10 км 8/5 600 м
[Cu med, cong Ac cast Ci fib]
+20.1 +12.5 62 +23 +24 комфорт 1006.9 992.2 0.5
18 19.07 Ю 1 10 км 3/0
[Ac lent Ci fib]
+16.6 +13.0 79 +17 +17 1007.5 992.6 +21.6 0.5
21 19.07 Ю 1 н/о ясно +13.9 +12.1 89 +14 +14 1007.8 992.7
00 20.07 ЮЗ 2 н/о 10/10 600 м
[Cb cap]
+14.4 +12.9 91 +14 +14 1008.1 993.1

 

Местоположение метеостанции Черусти (Московская область, Россия): широта 55.55 долгота 40.02 высота над уровнем моря 129 м.

В архиве по умолчанию представлена погода в Черустях за последнюю неделю. Архивные данные за месяц целиком и за предыдущие месяцы, начиная с января 2011 года, Вы можете получить, выбрав интересующий диапазон дат из раскрывающегося списка и нажав кнопку "Ввод!".


*Определитесь, кто Вы:
робот инопланетянин человек

Внимание! Время в таблицах - всемирное. Для получения местного времени необходимо прибавить поправку, которая равна 3 ч.

Смотрите также архив погоды в соседних городах и на ближайших метеорологических станциях:

Погода в Гусь-Хрустальный (Владимирская область, Россия) (40 км)
Погода в Петушках (Владимирская область, Россия) (55 км)
Погода в Туме (Рязанская область, Россия) (57 км)
Погода в Егорьевске (Московская область, Россия) (66 км)
Погода в Владимире (Владимирская область, Россия) (67 км)
Погода в Павловском Посаде (Московская область, Россия) (88 км)
Погода в Луховицах (Московская область, Россия) (90 км)
Погода в Воскресенске (Московская область, Россия) (91 км)
Погода в Коломне (Московская область, Россия) (94 км)
Погода в Электростали (Московская область, Россия) (100 км)

Пояснения к столбцам:

Ветер - указаны скорость ветра в м/с - средняя за 10 мин, порывы в срок и между сроками (в фигурных скобках) и направление, откуда дует ветер: С - северный, СВ - северо-восточный, В - восточный, ЮВ - юго-восточный, Ю - южный, ЮЗ - юго-западный, З - западный, СЗ - северо-западный.
Видимость - горизонтальная дальность видимости в метрах или километрах. При видимости от 1 до 10 км при отсутствии осадков обычно наблюдается дымка, при ухудшении видимости до 1 км и менее - туман. В сухую погоду видимость может ухудшаться дымом, пылью или мглою.
Явления - указаны атмосферные явления, наблюдавшиеся в срок или в последний час перед сроком; фигурными скобками обозначены явления, наблюдавшиеся между сроками (за 1-3 часа до срока); квадратными скобками обозначены град или гололедные отложения с указанием их диаметра в мм.
Облачность - указаны через наклонную черту общая и нижняя облачность в баллах и высота нижней границы облаков в метрах; квадратными скобками обозначены формы облаков: Ci - перистые, Cs - перисто-слоистые, Cc - перисто-кучевые, Ac - высококучевые, As - высокослоистые, Sc - слоисто-кучевые, Ns - слоисто-дождевые, Cu - кучевые, Cb - кучево-дождевые. Подробнее классификацию облаков см. в Атласе облаков (PDF).
T - Температура воздуха - температура, измеренная на высоте 2 м над землей.
Td - Температура точки росы - температура, при понижении до которой содержащийся в воздухе водяной пар достигнет насыщения.
f - Относительная влажность воздуха - влажноcть воздуха, измеренная на высоте 2 м над землей.
Te - Эффективная температура - температура, которую ощущает одетый по сезону человек в тени. Характеристика душности погоды. При расчете учитывается влияние влажности воздуха и скорости ветра на теплоощущения человека.
Tes - Эффективная температура на солнце - температура, которую ощущает человек, с поправкой на солнечный нагрев. Характеристика знойности погоды. Зависит от высоты солнца над горизонтом, облачности и скорости ветра. Ночью, в пасмурную погоду, а также при ветре 12 м/с и более поправка равна нулю.
P - Атмосферное давление - приведенное к уровню моря атмосферное давление.
Po - Атмосферное давление - измеренное на уровне метеостанции атмосферное давление.
Tmin - Минимальная температура - минимум температуры воздуха на высоте 2 м над землей.
Tmax - Максимальная температура - максимум температуры воздуха на высоте 2 м над землей.
R - Количество осадков - Количество выпавших осадков за период времени, мм. При наведении курсора мыши на число - период времени, за который выпало указанное количество осадков.
R24 - Количество осадков - Количество выпавших осадков за 24 часа, мм.
S - Снежный покров - Высота снежного покрова, см. При наведении курсора мыши на число - состояние снежного покрова и степень покрытия местности в баллах.